Location: Cossonay
(46.5833°N, 6.4167°E)
Time: 21:27:36
(UTC+00:00)

STARLINK-1257 - Pass Details

Date: 05 October 2020
Orbit: 549 x 550 km, 53.0° (Epoch: 22 October)

Event Time Altitude Azimuth Distance (km) Brightness Sun altitude
Exits shadow 04:36:55 16° 254° (WSW) 1,457 5.1 -11.4°
Maximum altitude 04:40:05 66° 334° (NNW) 602 3.7 -10.9°
Drops below altitude 10° 04:44:13 10° 58° (ENE) 1,827 7.3 -10.2°
Sets 04:46:29 0° 61° (ENE) 2,723 8.5 -9.8°
